Location: Mannheim
(49.4880°N, 8.4650°E)
Time: 23:22:57
(UTC+02:00)

ISS - Pass Details

Date: 18 March 2023
Orbit: 413 x 421 km, 51.6° (Epoch: 30 March)

Event Time Altitude Azimuth Distance (km) Brightness Sun altitude
Rises 20:11:19 0° 237° (WSW) 2,350 0.6 -16.1°
Reaches altitude 10° 20:13:25 10° 233° (SW) 1,488 -0.5 -16.5°
Maximum altitude 20:16:42 57° 154° (SSE) 496 -3.7 -17.0°
Enters shadow 20:17:10 50° 117° (ESE) 536 -3.7 -17.0°
